Flag for Germany Weather past 2 weeks in Bruchsal, Baden-Württemberg, Germany

Now
36 °F

Light rain. Mostly cloudy.


Feels Like: 30 °F
Forecast: 34 / 38 °F
Wind: 7 mph from South

Location: Baden Wurttemberg - Neuostheim

Current Time: Jan 26, 2015 at 8:16:12 PM

Latest Report: Jan 26, 2015 at 7:50 PM


Visibility: 4 mi

Pressure: 30.09 "Hg

Humidity: 93%

Dew point: 34 °F

Location of BruchsalLocation

Historic Weather in Bruchsal — Graph

°F

Bruchsal temperature yesterday

Maximum temperature yesterday: 39 °F (at 2:20 PM)
Minimum temperature yesterday: 28 °F (at 7:20 AM)
Average temperature yesterday: 35 °F

Past Weeks' High & Low Weather Summary

 TemperatureHumidityPressure
High59 °F (Jan 13, 2:50 PM)100% (Jan 16, 10:20 AM)30.45 "Hg (Jan 16, 10:20 AM)
Low28 °F (Jan 19, 5:20 AM)31% (Jan 13, 2:50 PM)29.65 "Hg (Jan 15, 6:50 PM)
Average39 °F80%30.00 "Hg
* Reported Jan 11 5:20 PM — Jan 26 5:50 PM, Bruchsal, Weather by CustomWeather, © 2014

Note: Actual official high and low records may vary slightly from our data, if they occured in-between our weather recording intervals... More about our weather records

Advertising

Bruchsal weather history for previous 24 hours

 ConditionsComfort  
Time TempWeatherWind HumidityBarometerVisibility
5:50 PM
Jan 26
34 °FLight rain. Passing clouds.8 mph100%30.12 "Hg4 mi
5:20 PM34 °FLight rain. Fog.8 mph100%30.12 "Hg2 mi
4:50 PM34 °FLight rain. Fog.8 mph100%30.12 "Hg2 mi
4:20 PM34 °FLight rain. Fog.9 mph100%30.15 "Hg2 mi
3:50 PM34 °FLight rain. Low clouds.9 mph100%30.15 "HgN/A
3:20 PM36 °FLight rain. Mostly cloudy.9 mph93%30.15 "Hg4 mi
2:50 PM36 °FLight rain. Fog.8 mph93%30.18 "Hg2 mi
2:20 PM36 °FLight rain. Fog.10 mph93%30.18 "Hg2 mi
1:50 PM36 °FLight rain. Fog.9 mph93%30.21 "Hg2 mi
1:20 PM36 °FLight rain. Fog.10 mph93%30.21 "Hg2 mi
12:50 PM36 °FLight rain. Low clouds.12 mph93%30.24 "Hg5 mi
12:20 PM36 °FLow clouds.12 mph93%30.24 "Hg5 mi
11:50 AM36 °FPartly sunny.10 mph93%30.27 "Hg5 mi
11:20 AM36 °FPartly sunny.9 mph93%30.27 "Hg6 mi
10:50 AM36 °FPartly sunny.10 mph93%30.27 "Hg6 mi
10:20 AM36 °FPartly sunny.9 mph93%30.30 "Hg5 mi
9:50 AM36 °FPartly sunny.9 mph93%30.30 "HgN/A
9:20 AM36 °FLight snow. Partly sunny.8 mph93%30.30 "HgN/A
8:50 AM36 °FPartly sunny.8 mph93%30.30 "HgN/A
8:20 AM34 °FPartly sunny.7 mph100%30.30 "HgN/A
7:50 AM34 °FPassing clouds.6 mph100%30.30 "HgN/A
7:20 AM34 °FLight snow. Passing clouds.6 mph100%30.33 "Hg4 mi
6:50 AM34 °FLight snow. Passing clouds.6 mph100%30.33 "Hg3 mi
6:20 AM34 °FLight snow. Passing clouds.6 mph100%30.33 "Hg4 mi
5:50 AM34 °FLight snow. Passing clouds.5 mph100%30.33 "Hg4 mi
5:20 AM34 °FLight snow. Passing clouds.3 mph100%30.33 "Hg4 mi
Weather by CustomWeather, © 2014

See weather overviewHow to use our weather pages